Location: Burzi?i
(45.0869°N, 16.0577°E)
Time: 12:00:26
(UTC+00:00)

Cosmos 968 Rocket - Pass Details

Date: 29 October 2020
Orbit: 741 x 770 km, 74.0° (Epoch: 27 November)

Event Time Altitude Azimuth Distance (km) Brightness Sun altitude
Rises 16:36:26 0° 342° (NNW) 3,239 6.8 -9.2°
Reaches altitude 10° 16:38:54 10° 348° (NNW) 2,304 6.0 -9.6°
Maximum altitude 16:44:00 52° 64° (ENE) 942 3.6 -10.5°
Drops below altitude 10° 16:49:01 10° 141° (SE) 2,270 5.6 -11.4°
Sets 16:51:25 0° 146° (SE) 3,186 6.4 -11.8°
